Estación de San Fernando

Ultimos registro cada 15 minutos 30
Estación Fecha / Hora Temperatura Humedad Lluvia Velocidad Dirección Radiación Presion
30 San Fernando 07-05-2026 07:15 8,6 91 0 1,3 233 0 1024,2
29 San Fernando 07-05-2026 07:00 8,6 91 0 0,4 224 0 1024,1
28 San Fernando 07-05-2026 06:45 8,7 91 0 1,3 214 0 1024
27 San Fernando 07-05-2026 06:30 8,8 91 0 1,3 241 0 1024,3
26 San Fernando 07-05-2026 06:15 8,8 91 0 0,9 191 0 1023,9
25 San Fernando 07-05-2026 06:00 8,9 91 0 1,8 227 0 1023,6
24 San Fernando 07-05-2026 05:45 8,9 91 0 0,9 204 0 1023,5
23 San Fernando 07-05-2026 05:30 8,9 91 0 2,2 226 0 1023,4
22 San Fernando 07-05-2026 05:15 8,9 91 0 0,9 240 0 1023,1
21 San Fernando 07-05-2026 05:00 9 90 0 0,9 231 0 1022,9
20 San Fernando 07-05-2026 04:45 9,1 90 0 0,9 239 0 1022,8
19 San Fernando 07-05-2026 04:30 9,1 90 0 0,4 200 0 1022,8
18 San Fernando 07-05-2026 04:15 9,2 91 0 0,9 225 0 1022,4
17 San Fernando 07-05-2026 04:00 9,3 91 0 0,4 226 0 1022,6
16 San Fernando 07-05-2026 03:45 9,3 91 0 0,4 227 0 1022,5
15 San Fernando 07-05-2026 03:30 9,3 91 0 1,3 209 0 1022,4
14 San Fernando 07-05-2026 03:15 9,3 91 0 0,9 197 0 1022,3
13 San Fernando 07-05-2026 03:00 9,3 95 0 1,3 214 0 1022,6
12 San Fernando 07-05-2026 02:45 9,4 91 0 0,9 190 0 1022,6
11 San Fernando 07-05-2026 02:30 9,4 91 0 0 214 0 1022,6
10 San Fernando 07-05-2026 02:15 9,6 92 0 1,3 224 0 1022,4
9 San Fernando 07-05-2026 02:00 9,7 93 0 0,9 253 0 1022,1
8 San Fernando 07-05-2026 01:45 9,9 94 0 0,4 218 0 1022,1
7 San Fernando 07-05-2026 01:30 9,9 94 0 0,9 226 0 1022
6 San Fernando 07-05-2026 01:15 9,9 93 0 0,4 248 0 1021,7
5 San Fernando 07-05-2026 01:00 9,8 93 0 0,4 247 0 1021,5
4 San Fernando 07-05-2026 00:45 9,8 93 0 0 225 0 1021,6
3 San Fernando 07-05-2026 00:30 9,9 93 0 0 246 0 1021,7
2 San Fernando 07-05-2026 00:15 10,1 92 0 0,9 231 0 1021,8
1 San Fernando 07-05-2026 00:00 10,3 93 0 0,9 218 0 1021,7